Find Hainan-1 01

NORAD ID: 51825 Int'l Des: NNA 2022-019 Owner: SANYZ Country: CN operational
LEOCIRCULARRETROGRADESSO

リアルタイム位置

3D地球を読み込み中...

Hainan-1 01について

説明を読み込み中...

次回通過

Passes for default location (London). Set your location on the main map for personalized predictions.

高度履歴

Loading altitude history...

軌道要素

1 51825U 22019B 26107.29447138 .00051450 00000-0 48909-3 0 9997
2 51825 97.3498 196.2526 0004293 345.1891 14.9243 15.66703932230205
Epoch: Apr 17, 2026 • Age: 9 hours

現在のステータス

高度 373.9 km
速度 7.69 km/s
衛星直下点 45.39°N, 96.49°E
打ち上げ日 Feb 27, 2022
運用期間 4.1 years
タイプ other

技術仕様

分類 Payload
質量 55.00 kg
乾燥質量 55.00 kg
総質量 55.00 kg
長さ 0.50 m
直径 0.50 m
スパン 2.00 m
形状 Box + 2 pan
製造者 DFHS
バスタイプ Hainan-1
フェーズステータス In Orbit
所有者/国 SANYZ/CN

Most Searched